Year,Month,Day,Hour,Minute,Value (Times are PST for temperature in C)
2014,02,06,00,00,-6.60
2014,02,06,00,02,-6.60
2014,02,06,00,04,-6.60
2014,02,06,00,05,-6.60
2014,02,06,00,06,-6.60
2014,02,06,00,07,-6.60
2014,02,06,00,08,-6.60
2014,02,06,00,09,-6.60
2014,02,06,00,10,-6.60
2014,02,06,00,11,-6.60
2014,02,06,00,12,-6.60
2014,02,06,00,14,-6.60
2014,02,06,00,16,-6.60
2014,02,06,00,17,-6.70
2014,02,06,00,18,-6.60
2014,02,06,00,19,-6.60
2014,02,06,00,21,-6.60
2014,02,06,00,22,-6.60
2014,02,06,00,24,-6.60
2014,02,06,00,25,-6.70
2014,02,06,00,26,-6.70
2014,02,06,00,27,-6.70
2014,02,06,00,28,-6.70
2014,02,06,00,29,-6.70
2014,02,06,00,30,-6.70
2014,02,06,00,31,-6.70
2014,02,06,00,33,-6.70
2014,02,06,00,35,-6.70
2014,02,06,00,36,-6.70
2014,02,06,00,37,-6.70
2014,02,06,00,39,-6.70
2014,02,06,00,40,-6.60
2014,02,06,00,41,-6.60
2014,02,06,00,42,-6.60
2014,02,06,00,44,-6.60
2014,02,06,00,45,-6.60
2014,02,06,00,46,-6.70
2014,02,06,00,47,-6.70
2014,02,06,00,48,-6.70
2014,02,06,00,49,-6.70
2014,02,06,00,50,-6.70
2014,02,06,00,51,-6.70
2014,02,06,00,52,-6.80
2014,02,06,00,53,-6.80
2014,02,06,00,54,-6.80
2014,02,06,00,55,-6.80
2014,02,06,00,56,-6.80
2014,02,06,00,57,-6.80
2014,02,06,00,58,-6.70
2014,02,06,01,00,-6.80
2014,02,06,01,01,-6.80
2014,02,06,01,02,-6.80
2014,02,06,01,04,-6.90
2014,02,06,01,05,-6.90
2014,02,06,01,06,-6.90
2014,02,06,01,07,-6.90
2014,02,06,01,08,-6.90
2014,02,06,01,09,-6.90
2014,02,06,01,10,-6.90
2014,02,06,01,11,-6.90
2014,02,06,01,12,-6.90
2014,02,06,01,13,-7.00
2014,02,06,01,14,-7.00
2014,02,06,01,15,-7.00
2014,02,06,01,16,-7.00
2014,02,06,01,18,-7.00
2014,02,06,01,19,-7.00
2014,02,06,01,20,-7.00
2014,02,06,01,21,-7.00
2014,02,06,01,22,-7.10
2014,02,06,01,23,-7.00
2014,02,06,01,25,-7.10
2014,02,06,01,27,-7.10
2014,02,06,01,28,-7.10
2014,02,06,01,29,-7.00
2014,02,06,01,31,-7.00
2014,02,06,01,32,-7.00
2014,02,06,01,33,-6.90
2014,02,06,01,34,-6.90
2014,02,06,01,35,-6.90
2014,02,06,01,37,-6.90
2014,02,06,01,38,-6.90
2014,02,06,01,40,-6.90
2014,02,06,01,42,-6.90
2014,02,06,01,44,-6.90
2014,02,06,01,45,-6.90
2014,02,06,01,46,-6.90
2014,02,06,01,47,-6.90
2014,02,06,01,48,-6.90
2014,02,06,01,50,-6.90
2014,02,06,01,51,-6.90
2014,02,06,01,53,-6.90
2014,02,06,01,54,-7.00
2014,02,06,01,56,-7.00
2014,02,06,01,57,-7.00
2014,02,06,01,59,-7.00
2014,02,06,02,00,-7.00
2014,02,06,02,02,-7.00
2014,02,06,02,04,-7.10
2014,02,06,02,05,-7.10
2014,02,06,02,06,-7.10
2014,02,06,02,07,-7.10
2014,02,06,02,08,-7.10
2014,02,06,02,09,-7.20
2014,02,06,02,10,-7.20
2014,02,06,02,11,-7.20
2014,02,06,02,12,-7.20
2014,02,06,02,13,-7.20
2014,02,06,02,14,-7.20
2014,02,06,02,16,-7.20
2014,02,06,02,17,-7.20
2014,02,06,02,18,-7.20
2014,02,06,02,19,-7.20
2014,02,06,02,20,-7.20
2014,02,06,02,22,-7.20
2014,02,06,02,23,-7.20
2014,02,06,02,24,-7.20
2014,02,06,02,25,-7.20
2014,02,06,02,27,-7.20
2014,02,06,02,28,-7.20
2014,02,06,02,29,-7.20
2014,02,06,02,30,-7.30
2014,02,06,02,31,-7.30
2014,02,06,02,33,-7.30
2014,02,06,02,34,-7.30
2014,02,06,02,35,-7.40
2014,02,06,02,36,-7.40
2014,02,06,02,37,-7.40
2014,02,06,02,38,-7.40
2014,02,06,02,39,-7.40
2014,02,06,02,40,-7.40
2014,02,06,02,41,-7.40
2014,02,06,02,42,-7.40
2014,02,06,02,43,-7.40
2014,02,06,02,44,-7.40
2014,02,06,02,45,-7.40
2014,02,06,02,47,-7.40
2014,02,06,02,49,-7.40
2014,02,06,02,50,-7.40
2014,02,06,02,51,-7.40
2014,02,06,02,52,-7.40
2014,02,06,02,53,-7.40
2014,02,06,02,54,-7.40
2014,02,06,02,55,-7.40
2014,02,06,02,56,-7.40
2014,02,06,02,57,-7.40
2014,02,06,02,58,-7.40
2014,02,06,02,59,-7.50
2014,02,06,03,00,-7.50
2014,02,06,03,01,-7.50
2014,02,06,03,03,-7.50
2014,02,06,03,04,-7.50
2014,02,06,03,05,-7.50
2014,02,06,03,06,-7.50
2014,02,06,03,07,-7.50
2014,02,06,03,08,-7.40
2014,02,06,03,09,-7.40
2014,02,06,03,10,-7.40
2014,02,06,03,11,-7.30
2014,02,06,03,12,-7.30
2014,02,06,03,14,-7.30
2014,02,06,03,15,-7.30
2014,02,06,03,16,-7.30
2014,02,06,03,17,-7.30
2014,02,06,03,18,-7.30
2014,02,06,03,19,-7.30
2014,02,06,03,20,-7.30
2014,02,06,03,21,-7.30
2014,02,06,03,23,-7.30
2014,02,06,03,24,-7.40
2014,02,06,03,25,-7.30
2014,02,06,03,26,-7.30
2014,02,06,03,27,-7.30
2014,02,06,03,28,-7.30
2014,02,06,03,29,-7.30
2014,02,06,03,31,-7.30
2014,02,06,03,32,-7.30
2014,02,06,03,33,-7.30
2014,02,06,03,34,-7.40
2014,02,06,03,35,-7.40
2014,02,06,03,37,-7.40
2014,02,06,03,38,-7.40
2014,02,06,03,39,-7.50
2014,02,06,03,40,-7.40
2014,02,06,03,42,-7.50
2014,02,06,03,43,-7.50
2014,02,06,03,44,-7.60
2014,02,06,03,45,-7.60
2014,02,06,03,47,-7.60
2014,02,06,03,48,-7.60
2014,02,06,03,49,-7.60
2014,02,06,03,50,-7.60
2014,02,06,03,51,-7.60
2014,02,06,03,52,-7.60
2014,02,06,03,53,-7.60
2014,02,06,03,54,-7.60
2014,02,06,03,55,-7.60
2014,02,06,03,56,-7.60
2014,02,06,03,58,-7.60
2014,02,06,03,59,-7.70
2014,02,06,04,00,-7.70
2014,02,06,04,01,-7.70
2014,02,06,04,03,-7.70
2014,02,06,04,04,-7.80
2014,02,06,04,05,-7.80
2014,02,06,04,06,-7.80
2014,02,06,04,07,-7.80
2014,02,06,04,08,-7.80
2014,02,06,04,09,-7.80
2014,02,06,04,10,-7.80
2014,02,06,04,11,-7.80
2014,02,06,04,13,-7.80
2014,02,06,04,14,-7.80
2014,02,06,04,15,-7.80
2014,02,06,04,16,-7.80
2014,02,06,04,18,-7.80
2014,02,06,04,19,-7.80
2014,02,06,04,20,-7.80
2014,02,06,04,21,-7.80
2014,02,06,04,22,-7.80
2014,02,06,04,23,-7.80
2014,02,06,04,24,-7.80
2014,02,06,04,26,-7.80
2014,02,06,04,27,-7.80
2014,02,06,04,28,-7.80
2014,02,06,04,29,-7.80
2014,02,06,04,30,-7.80
2014,02,06,04,31,-7.80
2014,02,06,04,33,-7.90
2014,02,06,04,34,-7.90
2014,02,06,04,36,-7.90
2014,02,06,04,38,-7.90
2014,02,06,04,40,-7.90
2014,02,06,04,41,-7.90
2014,02,06,04,43,-7.90
2014,02,06,04,44,-7.90
2014,02,06,04,45,-7.90
2014,02,06,04,46,-7.90
2014,02,06,04,47,-7.90
2014,02,06,04,48,-7.90
2014,02,06,04,49,-7.90
2014,02,06,04,50,-7.90
2014,02,06,04,52,-7.90
2014,02,06,04,54,-7.90
2014,02,06,04,55,-7.90
2014,02,06,04,56,-7.90
2014,02,06,04,57,-7.90
2014,02,06,04,59,-7.90
2014,02,06,05,00,-7.90
2014,02,06,05,02,-7.90
2014,02,06,05,04,-7.90
2014,02,06,05,05,-7.90
2014,02,06,05,06,-7.90
2014,02,06,05,07,-7.90
2014,02,06,05,08,-7.90
2014,02,06,05,09,-7.90
2014,02,06,05,10,-7.90
2014,02,06,05,11,-7.90
2014,02,06,05,12,-7.90
2014,02,06,05,13,-7.90
2014,02,06,05,14,-7.90
2014,02,06,05,16,-7.90
2014,02,06,05,17,-8.00
2014,02,06,05,19,-8.10
2014,02,06,05,20,-8.10
2014,02,06,05,21,-8.10
2014,02,06,05,22,-8.10
2014,02,06,05,23,-8.10
2014,02,06,05,25,-8.20
2014,02,06,05,26,-8.20
2014,02,06,05,27,-8.20
2014,02,06,05,28,-8.20
2014,02,06,05,29,-8.20
2014,02,06,05,30,-8.20
2014,02,06,05,31,-8.20
2014,02,06,05,32,-8.20
2014,02,06,05,33,-8.20
2014,02,06,05,34,-8.20
2014,02,06,05,36,-8.20
2014,02,06,05,37,-8.20
2014,02,06,05,38,-8.20
2014,02,06,05,39,-8.10
2014,02,06,05,40,-8.10
2014,02,06,05,41,-8.10
2014,02,06,05,42,-8.10
2014,02,06,05,43,-8.10
2014,02,06,05,44,-8.10
2014,02,06,05,45,-8.10
2014,02,06,05,46,-8.10
2014,02,06,05,47,-8.10
2014,02,06,05,48,-8.10
2014,02,06,05,49,-8.10
2014,02,06,05,50,-8.10
2014,02,06,05,51,-8.10
2014,02,06,05,53,-8.10
2014,02,06,05,54,-8.10
2014,02,06,05,55,-8.10
2014,02,06,05,56,-8.10
2014,02,06,05,57,-8.10
2014,02,06,05,59,-8.10
2014,02,06,06,00,-8.10
2014,02,06,06,01,-8.10
2014,02,06,06,02,-8.10
2014,02,06,06,03,-8.10
2014,02,06,06,04,-8.10
2014,02,06,06,05,-8.10
2014,02,06,06,06,-8.10
2014,02,06,06,07,-8.10
2014,02,06,06,08,-8.10
2014,02,06,06,09,-8.10
2014,02,06,06,11,-8.00
2014,02,06,06,12,-8.00
2014,02,06,06,14,-7.90
2014,02,06,06,15,-7.90
2014,02,06,06,16,-7.90
2014,02,06,06,18,-7.90
2014,02,06,06,19,-8.00
2014,02,06,06,20,-8.00
2014,02,06,06,21,-8.00
2014,02,06,06,22,-8.10
2014,02,06,06,23,-8.10
2014,02,06,06,24,-8.10
2014,02,06,06,26,-8.10
2014,02,06,06,27,-8.20
2014,02,06,06,28,-8.20
2014,02,06,06,30,-8.20
2014,02,06,06,32,-8.20
2014,02,06,06,33,-8.20
2014,02,06,06,35,-8.10
2014,02,06,06,37,-8.10
2014,02,06,06,38,-8.10
2014,02,06,06,39,-8.20
2014,02,06,06,40,-8.20
2014,02,06,06,41,-8.20
2014,02,06,06,42,-8.20
2014,02,06,06,43,-8.20
2014,02,06,06,44,-8.20
2014,02,06,06,45,-8.20
2014,02,06,06,46,-8.20
2014,02,06,06,47,-8.20
2014,02,06,06,49,-8.20
2014,02,06,06,51,-8.20
2014,02,06,06,52,-8.20
2014,02,06,06,53,-8.30
2014,02,06,06,54,-8.30
2014,02,06,06,55,-8.30
2014,02,06,06,56,-8.30
2014,02,06,06,57,-8.30
2014,02,06,06,58,-8.30
2014,02,06,06,59,-8.30
2014,02,06,07,00,-8.30
2014,02,06,07,01,-8.30
2014,02,06,07,03,-8.30
2014,02,06,07,04,-8.30
2014,02,06,07,05,-8.30
2014,02,06,07,06,-8.30
2014,02,06,07,07,-8.30
2014,02,06,07,08,-8.30
2014,02,06,07,09,-8.30
2014,02,06,07,10,-8.30
2014,02,06,07,11,-8.20
2014,02,06,07,12,-8.20
2014,02,06,07,13,-8.20
2014,02,06,07,14,-8.20
2014,02,06,07,15,-8.20
2014,02,06,07,16,-8.20
2014,02,06,07,17,-8.20
2014,02,06,07,18,-8.20
2014,02,06,07,20,-8.20
2014,02,06,07,22,-8.20
2014,02,06,07,23,-8.20
2014,02,06,07,26,-8.20
2014,02,06,07,27,-8.20
2014,02,06,07,29,-8.20
2014,02,06,07,30,-8.20
2014,02,06,07,31,-8.20
2014,02,06,07,32,-8.20
2014,02,06,07,33,-8.20
2014,02,06,07,34,-8.30
2014,02,06,07,35,-8.30
2014,02,06,07,37,-8.30
2014,02,06,07,38,-8.30
2014,02,06,07,39,-8.30
2014,02,06,07,40,-8.30
2014,02,06,07,41,-8.30
2014,02,06,07,43,-8.30
2014,02,06,07,44,-8.20
2014,02,06,07,45,-8.30
2014,02,06,07,46,-8.30
2014,02,06,07,48,-8.30
2014,02,06,07,50,-8.20
2014,02,06,07,51,-8.20
2014,02,06,07,53,-8.20
2014,02,06,07,54,-8.20
2014,02,06,07,56,-8.20
2014,02,06,07,57,-8.20
2014,02,06,07,58,-8.20
2014,02,06,08,00,-8.20
2014,02,06,08,03,-8.20
2014,02,06,08,04,-8.20
2014,02,06,08,05,-8.20
2014,02,06,08,06,-8.20
2014,02,06,08,07,-8.20
2014,02,06,08,08,-8.20
2014,02,06,08,09,-8.30
2014,02,06,08,10,-8.30
2014,02,06,08,11,-8.30
2014,02,06,08,12,-8.30
2014,02,06,08,13,-8.30
2014,02,06,08,14,-8.30
2014,02,06,08,15,-8.30
2014,02,06,08,16,-8.30
2014,02,06,08,17,-8.30
2014,02,06,08,18,-8.30
2014,02,06,08,20,-8.30
2014,02,06,08,21,-8.30
2014,02,06,08,22,-8.30
2014,02,06,08,23,-8.30
2014,02,06,08,24,-8.30
2014,02,06,08,26,-8.30
2014,02,06,08,27,-8.30
2014,02,06,08,29,-8.30
2014,02,06,08,30,-8.30
2014,02,06,08,31,-8.30
2014,02,06,08,32,-8.30
2014,02,06,08,33,-8.30
2014,02,06,08,34,-8.30
2014,02,06,08,36,-8.30
2014,02,06,08,38,-8.20
2014,02,06,08,39,-8.20
2014,02,06,08,40,-8.20
2014,02,06,08,42,-8.10
2014,02,06,08,43,-8.00
2014,02,06,08,45,-7.90
2014,02,06,08,46,-7.80
2014,02,06,08,47,-7.80
2014,02,06,08,49,-7.80
2014,02,06,08,50,-7.80
2014,02,06,08,52,-7.40
2014,02,06,08,54,-7.30
2014,02,06,08,55,-7.30
2014,02,06,08,56,-7.20
2014,02,06,08,57,-7.10
2014,02,06,08,58,-7.10
2014,02,06,09,00,-6.90
2014,02,06,09,01,-6.90
2014,02,06,09,03,-6.80
2014,02,06,09,04,-6.70
2014,02,06,09,05,-6.70
2014,02,06,09,06,-6.60
2014,02,06,09,07,-6.60
2014,02,06,09,08,-6.50
2014,02,06,09,09,-6.40
2014,02,06,09,11,-6.30
2014,02,06,09,12,-6.30
2014,02,06,09,14,-6.10
2014,02,06,09,15,-6.00
2014,02,06,09,16,-5.90
2014,02,06,09,17,-5.80
2014,02,06,09,18,-5.80
2014,02,06,09,19,-5.70
2014,02,06,09,20,-5.70
2014,02,06,09,22,-5.50
2014,02,06,09,23,-5.40
2014,02,06,09,24,-5.40
2014,02,06,09,26,-5.30
2014,02,06,09,28,-5.10
2014,02,06,09,29,-5.10
2014,02,06,09,31,-4.90
2014,02,06,09,32,-4.90
2014,02,06,09,33,-4.80
2014,02,06,09,34,-4.80
2014,02,06,09,35,-4.70
2014,02,06,09,37,-4.60
2014,02,06,09,38,-4.60
2014,02,06,09,39,-4.50
2014,02,06,09,40,-4.40
2014,02,06,09,42,-4.40
2014,02,06,09,43,-4.30
2014,02,06,09,44,-4.30
2014,02,06,09,45,-4.20
2014,02,06,09,46,-4.20
2014,02,06,09,48,-4.10
2014,02,06,09,49,-4.00
2014,02,06,09,50,-3.90
2014,02,06,09,51,-3.90
2014,02,06,09,53,-3.80
2014,02,06,09,54,-3.70
2014,02,06,09,55,-3.70
2014,02,06,09,56,-3.60
2014,02,06,09,57,-3.60
2014,02,06,09,59,-3.40
2014,02,06,10,01,-3.30
2014,02,06,10,02,-3.20
2014,02,06,10,04,-3.10
2014,02,06,10,05,-3.10
2014,02,06,10,06,-3.00
2014,02,06,10,07,-3.00
2014,02,06,10,08,-2.90
2014,02,06,10,09,-2.90
2014,02,06,10,11,-2.80
2014,02,06,10,12,-2.80
2014,02,06,10,13,-2.80
2014,02,06,10,15,-2.60
2014,02,06,10,17,-2.50
2014,02,06,10,18,-2.40
2014,02,06,10,20,-2.30
2014,02,06,10,21,-2.30
2014,02,06,10,22,-2.20
2014,02,06,10,23,-2.10
2014,02,06,10,24,-2.10
2014,02,06,10,26,-2.10
2014,02,06,10,27,-2.10
2014,02,06,10,28,-2.10
2014,02,06,10,29,-2.10
2014,02,06,10,31,-2.10
2014,02,06,10,32,-2.10
2014,02,06,10,33,-2.10
2014,02,06,10,35,-2.00
2014,02,06,10,36,-2.00
2014,02,06,10,37,-2.00
2014,02,06,10,39,-1.90
2014,02,06,10,40,-1.90
2014,02,06,10,41,-1.80
2014,02,06,10,42,-1.80
2014,02,06,10,43,-1.70
2014,02,06,10,44,-1.70
2014,02,06,10,45,-1.70
2014,02,06,10,46,-1.70
2014,02,06,10,47,-1.60
2014,02,06,10,48,-1.60
2014,02,06,10,49,-1.50
2014,02,06,10,50,-1.50
2014,02,06,10,51,-1.50
2014,02,06,10,53,-1.50
2014,02,06,10,55,-1.40
2014,02,06,10,57,-1.40
2014,02,06,10,58,-1.40
2014,02,06,11,00,-1.30
2014,02,06,11,01,-1.20
2014,02,06,11,03,-1.10
2014,02,06,11,04,-1.00
2014,02,06,11,05,-1.00
2014,02,06,11,06,-0.90
2014,02,06,11,07,-0.90
2014,02,06,11,08,-1.00
2014,02,06,11,09,-1.00
2014,02,06,11,11,-1.10
2014,02,06,11,12,-1.10
2014,02,06,11,13,-1.10
2014,02,06,11,14,-1.20
2014,02,06,11,15,-1.20
2014,02,06,11,17,-1.10
2014,02,06,11,19,-1.10
2014,02,06,11,21,-0.90
2014,02,06,11,22,-0.80
2014,02,06,11,24,-0.70
2014,02,06,11,27,-0.70
2014,02,06,11,28,-0.60
2014,02,06,11,29,-0.60
2014,02,06,11,30,-0.60
2014,02,06,11,31,-0.60
2014,02,06,11,32,-0.60
2014,02,06,11,33,-0.60
2014,02,06,11,34,-0.60
2014,02,06,11,36,-0.60
2014,02,06,11,37,-0.60
2014,02,06,11,39,-0.50
2014,02,06,11,40,-0.40
2014,02,06,11,41,-0.40
2014,02,06,11,43,-0.50
2014,02,06,11,44,-0.60
2014,02,06,11,45,-0.60
2014,02,06,11,46,-0.60
2014,02,06,11,47,-0.60
2014,02,06,11,48,-0.60
2014,02,06,11,49,-0.60
2014,02,06,11,50,-0.60
2014,02,06,11,51,-0.50
2014,02,06,11,53,-0.40
2014,02,06,11,54,-0.30
2014,02,06,11,55,-0.30
2014,02,06,11,56,-0.30
2014,02,06,11,57,-0.30
2014,02,06,11,58,-0.30
2014,02,06,11,59,-0.20
2014,02,06,12,00,-0.20
2014,02,06,12,02,-0.10
2014,02,06,12,03,-0.10
2014,02,06,12,04,-0.10
2014,02,06,12,05,-0.10
2014,02,06,12,06,-0.10
2014,02,06,12,07,0.00
2014,02,06,12,08,0.00
2014,02,06,12,09,0.10
2014,02,06,12,11,0.10
2014,02,06,12,12,0.10
2014,02,06,12,14,0.00
2014,02,06,12,15,0.00
2014,02,06,12,16,0.00
2014,02,06,12,17,0.00
2014,02,06,12,19,0.10
2014,02,06,12,20,0.10
2014,02,06,12,22,0.10
2014,02,06,12,23,0.20
2014,02,06,12,24,0.20
2014,02,06,12,26,0.20
2014,02,06,12,28,0.20
2014,02,06,12,29,0.20
2014,02,06,12,30,0.20
2014,02,06,12,31,0.20
2014,02,06,12,33,0.20
2014,02,06,12,34,0.20
2014,02,06,12,35,0.20
2014,02,06,12,36,0.20
2014,02,06,12,37,0.30
2014,02,06,12,39,0.30
2014,02,06,12,40,0.30
2014,02,06,12,41,0.30
2014,02,06,12,42,0.30
2014,02,06,12,43,0.30
2014,02,06,12,45,0.30
2014,02,06,12,47,0.30
2014,02,06,12,48,0.20
2014,02,06,12,49,0.20
2014,02,06,12,50,0.20
2014,02,06,12,51,0.20
2014,02,06,12,52,0.20
2014,02,06,12,53,0.20
2014,02,06,12,54,0.20
2014,02,06,12,55,0.20
2014,02,06,12,56,0.30
2014,02,06,12,58,0.30
2014,02,06,13,00,0.40
2014,02,06,13,01,0.40
2014,02,06,13,03,0.40
2014,02,06,13,04,0.30
2014,02,06,13,05,0.30
2014,02,06,13,06,0.30
2014,02,06,13,07,0.30
2014,02,06,13,08,0.20
2014,02,06,13,09,0.20
2014,02,06,13,11,0.20
2014,02,06,13,12,0.30
2014,02,06,13,13,0.30
2014,02,06,13,14,0.30
2014,02,06,13,16,0.40
2014,02,06,13,17,0.50
2014,02,06,13,18,0.60
2014,02,06,13,19,0.60
2014,02,06,13,20,0.60
2014,02,06,13,21,0.60
2014,02,06,13,22,0.60
2014,02,06,13,23,0.60
2014,02,06,13,25,0.60
2014,02,06,13,26,0.70
2014,02,06,13,27,0.70
2014,02,06,13,28,0.70
2014,02,06,13,30,0.80
2014,02,06,13,31,0.80
2014,02,06,13,32,0.70
2014,02,06,13,33,0.70
2014,02,06,13,35,0.80
2014,02,06,13,36,0.80
2014,02,06,13,37,0.80
2014,02,06,13,39,0.80
2014,02,06,13,40,0.80
2014,02,06,13,41,0.80
2014,02,06,13,43,0.80
2014,02,06,13,44,0.80
2014,02,06,13,45,0.90
2014,02,06,13,46,0.90
2014,02,06,13,47,0.90
2014,02,06,13,48,0.90
2014,02,06,13,49,0.90
2014,02,06,13,50,0.90
2014,02,06,13,51,0.90
2014,02,06,13,52,0.90
2014,02,06,13,53,0.80
2014,02,06,13,54,0.80
2014,02,06,13,55,0.80
2014,02,06,13,56,0.80
2014,02,06,13,57,0.80
2014,02,06,13,58,0.80
2014,02,06,13,59,0.80
2014,02,06,14,00,0.80
2014,02,06,14,02,0.80
2014,02,06,14,03,0.80
2014,02,06,14,04,0.80
2014,02,06,14,05,0.90
2014,02,06,14,06,0.90
2014,02,06,14,07,0.90
2014,02,06,14,08,0.90
2014,02,06,14,09,0.90
2014,02,06,14,10,0.90
2014,02,06,14,11,0.90
2014,02,06,14,12,0.90
2014,02,06,14,13,0.90
2014,02,06,14,15,0.90
2014,02,06,14,16,0.80
2014,02,06,14,18,0.90
2014,02,06,14,19,0.90
2014,02,06,14,20,0.90
2014,02,06,14,22,0.90
2014,02,06,14,23,0.90
2014,02,06,14,24,0.90
2014,02,06,14,25,0.90
2014,02,06,14,26,0.90
2014,02,06,14,27,0.90
2014,02,06,14,28,0.90
2014,02,06,14,30,1.00
2014,02,06,14,31,1.10
2014,02,06,14,33,1.10
2014,02,06,14,34,1.10
2014,02,06,14,36,1.10
2014,02,06,14,37,1.10
2014,02,06,14,39,1.00
2014,02,06,14,40,0.90
2014,02,06,14,42,0.90
2014,02,06,14,43,0.90
2014,02,06,14,44,0.90
2014,02,06,14,45,0.90
2014,02,06,14,46,0.90
2014,02,06,14,48,0.80
2014,02,06,14,49,0.80
2014,02,06,14,51,0.80
2014,02,06,14,52,0.80
2014,02,06,14,53,0.90
2014,02,06,14,54,0.90
2014,02,06,14,55,0.90
2014,02,06,14,57,0.90
2014,02,06,14,59,0.90
2014,02,06,15,01,0.90
2014,02,06,15,02,0.90
2014,02,06,15,04,0.90
2014,02,06,15,05,0.90
2014,02,06,15,06,0.90
2014,02,06,15,07,0.90
2014,02,06,15,08,0.90
2014,02,06,15,09,0.90
2014,02,06,15,10,0.90
2014,02,06,15,11,0.90
2014,02,06,15,12,0.90
2014,02,06,15,14,1.00
2014,02,06,15,15,1.00
2014,02,06,15,17,1.00
2014,02,06,15,18,1.00
2014,02,06,15,20,1.00
2014,02,06,15,22,0.90
2014,02,06,15,23,0.90
2014,02,06,15,24,0.80
2014,02,06,15,25,0.80
2014,02,06,15,26,0.80
2014,02,06,15,27,0.80
2014,02,06,15,29,0.80
2014,02,06,15,30,0.80
2014,02,06,15,31,0.70
2014,02,06,15,32,0.70
2014,02,06,15,34,0.70
2014,02,06,15,35,0.60
2014,02,06,15,36,0.60
2014,02,06,15,37,0.60
2014,02,06,15,38,0.60
2014,02,06,15,39,0.60
2014,02,06,15,40,0.70
2014,02,06,15,41,0.70
2014,02,06,15,42,0.70
2014,02,06,15,43,0.70
2014,02,06,15,45,0.70
2014,02,06,15,47,0.80
2014,02,06,15,49,0.80
2014,02,06,15,50,0.80
2014,02,06,15,51,0.80
2014,02,06,15,53,0.70
2014,02,06,15,54,0.70
2014,02,06,15,56,0.70
2014,02,06,15,57,0.70
2014,02,06,15,59,0.80
2014,02,06,16,00,0.80
2014,02,06,16,01,0.70
2014,02,06,16,02,0.70
2014,02,06,16,04,0.60
2014,02,06,16,05,0.60
2014,02,06,16,06,0.60
2014,02,06,16,07,0.60
2014,02,06,16,08,0.60
2014,02,06,16,09,0.60
2014,02,06,16,11,0.60
2014,02,06,16,13,0.60
2014,02,06,16,14,0.60
2014,02,06,16,16,0.60
2014,02,06,16,18,0.60
2014,02,06,16,19,0.60
2014,02,06,16,21,0.60
2014,02,06,16,22,0.60
2014,02,06,16,23,0.60
2014,02,06,16,25,0.60
2014,02,06,16,26,0.60
2014,02,06,16,28,0.50
2014,02,06,16,29,0.50
2014,02,06,16,30,0.50
2014,02,06,16,31,0.40
2014,02,06,16,32,0.40
2014,02,06,16,34,0.30
2014,02,06,16,35,0.30
2014,02,06,16,37,0.20
2014,02,06,16,38,0.20
2014,02,06,16,40,0.20
2014,02,06,16,41,0.20
2014,02,06,16,43,0.20
2014,02,06,16,44,0.10
2014,02,06,16,45,0.10
2014,02,06,16,46,0.10
2014,02,06,16,48,0.00
2014,02,06,16,49,-0.10
2014,02,06,16,50,-0.10
2014,02,06,16,51,-0.20
2014,02,06,16,52,-0.20
2014,02,06,16,53,-0.20
2014,02,06,16,54,-0.30
2014,02,06,16,55,-0.30
2014,02,06,16,56,-0.30
2014,02,06,16,57,-0.30
2014,02,06,16,59,-0.40
2014,02,06,17,00,-0.50
2014,02,06,17,01,-0.50
2014,02,06,17,03,-0.60
2014,02,06,17,04,-0.60
2014,02,06,17,05,-0.70
2014,02,06,17,06,-0.70
2014,02,06,17,07,-0.70
2014,02,06,17,08,-0.80
2014,02,06,17,09,-0.80
2014,02,06,17,11,-0.80
2014,02,06,17,13,-0.90
2014,02,06,17,15,-0.90
2014,02,06,17,17,-1.00
2014,02,06,17,18,-1.00
2014,02,06,17,19,-1.10
2014,02,06,17,20,-1.10
2014,02,06,17,21,-1.10
2014,02,06,17,22,-1.10
2014,02,06,17,23,-1.20
2014,02,06,17,24,-1.20
2014,02,06,17,25,-1.20
2014,02,06,17,27,-1.20
2014,02,06,17,28,-1.20
2014,02,06,17,29,-1.30
2014,02,06,17,30,-1.30
2014,02,06,17,32,-1.30
2014,02,06,17,33,-1.30
2014,02,06,17,34,-1.30
2014,02,06,17,36,-1.40
2014,02,06,17,38,-1.40
2014,02,06,17,39,-1.40
2014,02,06,17,40,-1.50
2014,02,06,17,42,-1.50
2014,02,06,17,43,-1.60
2014,02,06,17,44,-1.60
2014,02,06,17,46,-1.60
2014,02,06,17,48,-1.60
2014,02,06,17,49,-1.70
2014,02,06,17,50,-1.70
2014,02,06,17,52,-1.70
2014,02,06,17,53,-1.70
2014,02,06,17,54,-1.70
2014,02,06,17,56,-1.80
2014,02,06,17,57,-1.80
2014,02,06,17,59,-1.80
2014,02,06,18,00,-1.80
2014,02,06,18,01,-1.90
2014,02,06,18,03,-1.90
2014,02,06,18,04,-1.90
2014,02,06,18,05,-2.00
2014,02,06,18,06,-2.00
2014,02,06,18,07,-2.10
2014,02,06,18,08,-2.10
2014,02,06,18,09,-2.10
2014,02,06,18,10,-2.10
2014,02,06,18,11,-2.20
2014,02,06,18,12,-2.20
2014,02,06,18,14,-2.20
2014,02,06,18,15,-2.30
2014,02,06,18,17,-2.30
2014,02,06,18,18,-2.30
2014,02,06,18,19,-2.40
2014,02,06,18,20,-2.40
2014,02,06,18,22,-2.40
2014,02,06,18,23,-2.50
2014,02,06,18,25,-2.60
2014,02,06,18,27,-2.60
2014,02,06,18,28,-2.60
2014,02,06,18,29,-2.60
2014,02,06,18,31,-2.70
2014,02,06,18,33,-2.70
2014,02,06,18,34,-2.70
2014,02,06,18,35,-2.70
2014,02,06,18,36,-2.70
2014,02,06,18,37,-2.70
2014,02,06,18,39,-2.70
2014,02,06,18,40,-2.70
2014,02,06,18,41,-2.70
2014,02,06,18,42,-2.70
2014,02,06,18,43,-2.70
2014,02,06,18,45,-2.70
2014,02,06,18,46,-2.70
2014,02,06,18,48,-2.70
2014,02,06,18,49,-2.70
2014,02,06,18,50,-2.70
2014,02,06,18,52,-2.70
2014,02,06,18,53,-2.70
2014,02,06,18,54,-2.70
2014,02,06,18,56,-2.70
2014,02,06,18,57,-2.70
2014,02,06,18,59,-2.70
2014,02,06,19,01,-2.80
2014,02,06,19,02,-2.80
2014,02,06,19,03,-2.80
2014,02,06,19,04,-2.80
2014,02,06,19,05,-2.80
2014,02,06,19,06,-2.80
2014,02,06,19,07,-2.80
2014,02,06,19,08,-2.90
2014,02,06,19,09,-2.90
2014,02,06,19,10,-2.90
2014,02,06,19,12,-2.90
2014,02,06,19,13,-2.90
2014,02,06,19,14,-2.90
2014,02,06,19,15,-2.90
2014,02,06,19,17,-2.90
2014,02,06,19,18,-3.00
2014,02,06,19,19,-3.00
2014,02,06,19,20,-3.00
2014,02,06,19,21,-3.00
2014,02,06,19,23,-3.00
2014,02,06,19,24,-3.00
2014,02,06,19,26,-3.10
2014,02,06,19,28,-3.20
2014,02,06,19,29,-3.20
2014,02,06,19,31,-3.30
2014,02,06,19,32,-3.30
2014,02,06,19,33,-3.30
2014,02,06,19,34,-3.40
2014,02,06,19,35,-3.40
2014,02,06,19,37,-3.50
2014,02,06,19,38,-3.60
2014,02,06,19,40,-3.70
2014,02,06,19,41,-3.70
2014,02,06,19,42,-3.70
2014,02,06,19,43,-3.70
2014,02,06,19,44,-3.80
2014,02,06,19,45,-3.80
2014,02,06,19,46,-3.80
2014,02,06,19,47,-3.90
2014,02,06,19,48,-3.90
2014,02,06,19,49,-3.90
2014,02,06,19,50,-4.00
2014,02,06,19,52,-4.10
2014,02,06,19,53,-4.10
2014,02,06,19,54,-4.10
2014,02,06,19,55,-4.10
2014,02,06,19,56,-4.20
2014,02,06,19,57,-4.20
2014,02,06,19,58,-4.20
2014,02,06,20,00,-4.20
2014,02,06,20,02,-4.20
2014,02,06,20,04,-4.30
2014,02,06,20,05,-4.30
2014,02,06,20,06,-4.30
2014,02,06,20,07,-4.30
2014,02,06,20,08,-4.30
2014,02,06,20,09,-4.30
2014,02,06,20,10,-4.40
2014,02,06,20,11,-4.40
2014,02,06,20,12,-4.40
2014,02,06,20,13,-4.40
2014,02,06,20,14,-4.50
2014,02,06,20,16,-4.60
2014,02,06,20,18,-4.60
2014,02,06,20,19,-4.60
2014,02,06,20,20,-4.70
2014,02,06,20,21,-4.70
2014,02,06,20,22,-4.70
2014,02,06,20,23,-4.80
2014,02,06,20,25,-4.80
2014,02,06,20,26,-4.80
2014,02,06,20,28,-4.90
2014,02,06,20,29,-4.90
2014,02,06,20,30,-4.90
2014,02,06,20,32,-5.00
2014,02,06,20,33,-5.00
2014,02,06,20,34,-5.00
2014,02,06,20,36,-5.10
2014,02,06,20,37,-5.10
2014,02,06,20,39,-5.10
2014,02,06,20,41,-5.20
2014,02,06,20,42,-5.20
2014,02,06,20,43,-5.20
2014,02,06,20,44,-5.20
2014,02,06,20,45,-5.30
2014,02,06,20,47,-5.30
2014,02,06,20,48,-5.30
2014,02,06,20,49,-5.30
2014,02,06,20,50,-5.40
2014,02,06,20,52,-5.40
2014,02,06,20,54,-5.40
2014,02,06,20,55,-5.50
2014,02,06,20,56,-5.50
2014,02,06,20,57,-5.50
2014,02,06,20,58,-5.60
2014,02,06,20,59,-5.60
2014,02,06,21,00,-5.60
2014,02,06,21,01,-5.60
2014,02,06,21,02,-5.70
2014,02,06,21,04,-5.70
2014,02,06,21,05,-5.70
2014,02,06,21,06,-5.80
2014,02,06,21,07,-5.80
2014,02,06,21,08,-5.80
2014,02,06,21,09,-5.80
2014,02,06,21,11,-5.90
2014,02,06,21,12,-5.90
2014,02,06,21,13,-5.90
2014,02,06,21,14,-5.90
2014,02,06,21,16,-6.00
2014,02,06,21,17,-6.00
2014,02,06,21,18,-6.10
2014,02,06,21,20,-6.10
2014,02,06,21,22,-6.20
2014,02,06,21,24,-6.20
2014,02,06,21,25,-6.20
2014,02,06,21,26,-6.20
2014,02,06,21,27,-6.20
2014,02,06,21,28,-6.30
2014,02,06,21,29,-6.30
2014,02,06,21,30,-6.30
2014,02,06,21,31,-6.30
2014,02,06,21,33,-6.30
2014,02,06,21,34,-6.30
2014,02,06,21,36,-6.40
2014,02,06,21,37,-6.40
2014,02,06,21,38,-6.40
2014,02,06,21,40,-6.40
2014,02,06,21,41,-6.40
2014,02,06,21,43,-6.40
2014,02,06,21,44,-6.40
2014,02,06,21,46,-6.40
2014,02,06,21,47,-6.40
2014,02,06,21,48,-6.50
2014,02,06,21,49,-6.50